EHI
1 2 5 8 8 7 7 7 6 5 5 5 4 3 3 3 3 2 1 0 0 0 0 0 0 0 0 0 0 0 0 0 0 0 0 0 0 0 0 0 0 0 0
2 3 6 9 9 8 8 7 5 4 4 4 3 3 3 3 3 2 1 0 0 0 0 0 0 0 0 0 0 0 0 0 0 0 0 0 0 0 0 0 0 0 1
3 3 6 9 10 9 8 6 5 4 3 3 3 3 3 3 3 2 1 0 0 0 0 0 0 0 0 0 0 0 0 0 0 0 0 0 0 0 0 0 0 1 2
3 4 6 9 10 9 8 6 5 5 4 3 3 3 3 3 3 2 1 0 0 0 0 0 0 0 0 0 0 0 0 0 0 0 0 0 0 0 0 0 0 1 2
4 5 8 10 11 10 8 7 6 6 5 4 3 3 3 3 2 1 0 0 0 0 0 0 0 0 0 0 0 0 0 0 0 0 0 0 0 0 0 0 0 0 1
6 6 9 11 12 10 9 8 7 6 6 4 3 3 3 3 1 0 0 0 0 0 1 1 1 0 0 0 0 0 0 0 0 0 0 0 0 0 0 0 0 0 0
7 7 9 12 12 11 10 8 7 6 6 5 4 4 3 3 1 1 0 0 0 1 2 2 1 0 0 0 0 0 0 0 0 0 0 0 0 0 0 0 0 0 0
8 8 9 11 12 11 9 7 7 6 6 6 6 5 4 3 3 2 1 0 1 2 2 1 0 0 0 0 0 0 0 0 0 0 0 0 0 0 0 0 0 0 0
8 9 8 9 10 9 7 6 6 6 6 6 5 4 3 3 3 3 1 1 2 3 2 1 0 0 0 0 0 0 0 0 0 0 0 0 0 0 0 0 0 0 0
9 9 9 8 7 6 4 4 4 4 4 4 4 3 3 3 3 3 3 3 3 3 1 0 0 0 0 0 0 0 0 0 0 0 0 0 0 0 0 0 0 0 0
10 10 9 8 6 4 3 3 3 3 3 3 3 3 3 3 3 3 3 3 3 2 1 0 0 0 0 0 0 0 0 0 0 0 0 0 0 0 0 0 0 0 0
10 9 8 6 4 3 3 3 3 3 3 3 3 3 3 3 3 3 2 2 2 1 0 0 0 0 0 0 0 0 0 0 0 0 0 0 0 0 0 0 0 0 0
8 8 6 4 3 3 3 3 3 3 3 3 3 3 3 3 3 3 1 1 1 0 0 0 0 0 0 0 0 0 0 0 0 0 0 0 0 0 0 0 0 0 0
5 5 4 3 3 3 3 3 3 3 3 3 3 3 3 3 3 3 2 1 0 0 0 0 0 0 0 0 0 0 0 0 0 0 0 0 0 0 0 0 0 0 0
4 4 4 3 3 3 3 3 3 3 3 3 3 3 3 3 3 3 2 1 0 0 0 0 0 0 0 0 0 0 0 0 0 0 0 0 0 0 0 0 0 0 0
5 5 4 3 3 3 3 3 3 3 3 3 3 3 3 3 3 3 2 1 0 0 0 0 0 0 0 0 0 0 0 0 0 0 0 0 0 0 0 0 0 0 0
4 4 5 4 3 3 3 3 3 3 3 3 3 3 3 3 3 3 2 1 0 0 0 0 0 0 0 0 0 0 0 0 0 0 0 0 0 0 0 0 0 0 0
3 4 5 5 4 4 4 4 4 3 3 3 3 3 3 3 3 3 2 1 0 0 0 0 0 0 0 0 0 0 0 0 0 0 0 0 0 0 0 0 0 0 0
3 3 4 4 4 5 5 6 5 4 3 3 3 3 3 3 3 3 2 1 0 0 0 0 0 0 0 0 0 0 0 0 0 0 0 0 0 0 0 0 0 0 0
3 3 3 3 3 4 6 6 5 4 3 3 3 3 3 3 3 3 2 1 0 0 0 0 0 0 0 0 0 0 0 0 0 0 0 0 0 0 0 0 0 0 0
2 3 3 3 3 4 5 4 4 3 3 2 3 3 3 3 3 3 2 1 0 0 0 0 0 0 0 0 0 0 0 0 0 0 0 0 0 0 0 0 0 0 0
1 2 4 4 3 3 3 3 2 2 2 2 2 3 3 3 3 3 2 1 0 0 0 0 0 0 0 0 0 0 0 0 0 0 0 0 0 0 0 0 0 0 0
1 2 3 3 3 1 1 1 1 1 1 1 1 3 3 3 3 3 2 1 0 0 0 0 0 0 0 0 0 0 0 0 0 0 0 0 0 0 0 0 0 0 0
3 3 3 3 2 1 0 0 0 0 0 0 1 2 3 3 3 3 3 1 0 0 0 0 0 0 0 0 0 0 0 0 0 0 0 0 0 0 0 0 0 0 0
3 3 3 3 2 1 0 0 0 0 0 0 0 1 2 3 3 3 3 2 0 0 0 0 0 0 0 0 0 0 0 0 0 0 0 0 0 0 0 0 0 0 0
3 3 3 3 2 1 0 0 0 0 0 0 0 0 1 3 3 3 3 1 0 0 0 0 0 0 0 0 0 0 0 0 0 0 0 0 0 0 0 0 0 0 0
Wind_Speed
3 4 8 9 10 10 10 10 11 11 11 11 11 11 11 11 11 11 11 11 11 11 11 12 12 13 13 13 13 13 14 14 14 14 14 13 13 14 14 14 13 9 15
7 6 9 10 10 10 10 10 11 11 10 11 11 11 10 10 10 10 10 10 10 10 11 11 12 12 12 12 13 13 13 13 13 13 12 11 13 14 14 14 13 10 15
8 7 8 10 10 10 10 10 10 10 10 10 10 10 9 9 9 9 9 9 10 10 10 10 11 11 11 12 12 12 13 13 12 12 10 6 8 13 14 14 14 15 14
8 7 8 10 10 10 10 10 10 10 10 9 9 9 9 9 9 8 8 9 9 9 10 10 10 10 10 10 11 12 12 12 11 10 5 5 5 12 13 14 14 14 14
7 6 8 10 11 10 10 10 10 10 9 9 9 8 8 9 8 8 8 9 8 9 9 9 9 9 9 9 10 11 11 11 11 8 5 5 4 11 12 12 13 13 13
7 6 7 10 11 10 10 10 10 9 9 9 8 8 8 8 8 8 8 8 8 8 8 8 9 9 8 8 9 10 10 10 8 5 4 4 4 10 11 12 12 12 12
7 6 6 9 10 10 10 10 9 9 8 8 8 8 8 8 8 8 7 7 7 7 8 8 8 7 8 8 8 9 9 8 5 4 4 3 5 9 10 10 11 11 11
8 6 6 8 9 9 9 9 9 8 8 8 7 7 7 8 7 7 7 7 7 7 7 7 7 7 7 7 7 8 8 6 5 4 3 3 6 8 9 9 9 10 10
7 6 4 4 5 7 7 7 7 7 7 7 7 7 7 7 6 7 6 6 6 6 6 6 6 6 6 6 6 7 7 7 3 2 3 2 5 7 9 9 9 9 9
5 5 4 4 3 4 4 6 6 6 7 7 6 6 6 6 5 5 5 5 6 6 5 5 5 5 5 5 6 6 6 5 3 2 1 2 6 7 8 8 8 8 8
5 4 4 4 3 3 3 4 5 5 6 6 5 6 5 3 3 3 3 4 5 5 5 5 4 4 4 4 4 5 4 2 2 1 1 4 5 6 7 8 7 7 7
5 4 4 4 4 3 3 3 2 3 3 3 3 3 2 2 2 3 4 4 4 4 3 3 3 3 3 2 3 3 2 2 1 1 1 4 5 6 6 7 7 6 6
6 5 4 4 4 4 2 2 2 2 2 2 3 3 2 2 2 2 1 2 2 2 1 1 1 1 1 1 1 1 1 1 1 0 1 4 5 5 6 6 6 6 6
5 5 4 4 4 3 3 2 2 2 2 2 2 2 2 2 1 1 1 1 1 1 1 1 0 0 1 1 1 1 1 1 1 0 1 4 4 4 5 5 5 5 5
5 5 5 4 4 3 3 2 2 2 2 2 2 2 2 2 2 1 1 1 1 1 1 1 0 0 0 0 1 2 1 1 1 1 0 3 3 3 3 4 5 4 4
4 4 4 5 4 4 3 2 2 2 2 2 2 2 2 2 2 2 1 1 1 0 0 1 1 1 0 0 1 1 2 1 1 1 0 1 2 3 3 3 3 3 4
4 3 4 5 4 4 4 3 2 2 2 2 2 2 2 2 2 2 2 1 0 0 1 1 1 1 1 1 0 1 1 1 1 1 1 1 1 1 1 2 2 2 3
4 3 3 4 4 4 4 3 2 2 2 2 2 2 2 2 2 2 2 1 1 1 1 1 1 1 1 1 0 1 1 1 1 1 1 1 1 0 0 1 1 1 1
4 4 4 3 4 4 3 3 2 2 2 2 1 1 2 2 2 2 2 1 1 1 1 1 1 1 1 0 0 1 1 1 1 1 1 1 1 1 0 0 0 1 2
3 4 4 3 3 3 2 2 1 1 1 1 1 1 2 2 2 2 2 2 2 2 1 1 1 1 1 1 1 1 0 0 1 1 1 1 1 1 1 1 0 1 2
3 3 3 3 2 2 2 2 2 1 1 1 1 2 2 2 2 3 2 2 2 2 2 2 1 1 1 1 2 1 2 1 1 1 1 1 0 1 1 1 1 1 1
3 3 4 3 3 2 2 2 2 2 1 1 1 1 2 2 2 2 3 3 2 2 2 2 2 1 0 1 2 2 1 2 2 1 0 1 0 0 0 1 0 1 1
3 4 4 4 3 3 2 2 2 1 1 0 1 2 2 2 2 2 2 3 3 3 3 3 3 3 2 1 1 2 2 2 1 2 1 0 0 0 1 1 1 1 1
4 3 3 3 3 3 3 3 3 3 2 3 2 2 2 2 2 2 2 2 3 3 3 3 3 2 3 2 1 0 1 3 2 1 2 1 1 1 1 1 1 1 1
3 3 3 3 3 3 3 4 4 2 2 2 1 2 2 2 2 3 3 3 2 3 3 3 2 2 3 3 2 1 1 1 1 2 2 2 2 1 1 2 1 1 1
2 2 2 2 2 2 3 3 4 4 3 2 2 3 2 2 2 3 3 3 3 2 3 3 3 3 3 3 2 2 2 2 2 2 2 2 2 2 2 1 1 1 1
Wind_Direction
163 164 139 129 121 114 109 106 102 99 98 97 96 94 92 91 90 87 85 86 87 85 85 85 86 85 85 85 85 84 81 81 80 79 79 81 84 84 81 77 80 80 86
152 149 134 127 122 116 112 108 107 104 102 100 99 97 95 94 93 91 91 89 88 87 87 87 87 87 87 86 85 84 82 80 79 74 72 74 80 84 83 81 82 84 85
136 139 135 128 124 119 114 110 108 106 106 104 101 99 97 96 95 94 93 92 91 88 88 87 87 89 89 87 85 84 82 79 80 76 69 62 74 82 85 84 83 82 84
132 134 133 127 125 121 117 113 110 107 108 107 104 101 99 97 97 97 97 98 95 90 90 88 89 91 91 89 87 85 83 79 77 75 64 59 72 84 85 85 85 83 83
125 127 129 126 125 121 119 115 112 109 107 106 105 105 102 99 98 99 102 104 100 96 93 91 90 90 90 87 86 86 84 79 73 69 62 59 69 88 87 87 86 87 86
119 120 127 126 126 125 122 118 116 112 109 107 106 105 104 103 99 97 102 103 103 101 98 95 92 90 87 86 84 87 87 79 68 67 61 61 73 89 91 91 90 90 89
120 121 128 125 126 124 122 119 118 115 113 111 107 105 104 104 103 99 101 104 104 104 101 98 96 93 87 85 84 87 89 77 70 68 62 62 83 93 96 96 96 94 91
126 126 127 123 121 120 120 119 118 117 115 113 110 107 105 105 105 106 106 106 107 108 104 102 99 95 87 84 85 86 88 80 74 77 65 68 93 100 100 99 97 95 94
120 119 117 125 122 119 119 118 117 118 115 111 109 106 104 101 103 103 109 109 107 109 108 106 101 99 93 85 84 82 84 80 75 72 79 72 95 102 102 99 97 98 97
116 119 118 113 118 126 123 115 113 112 109 103 97 94 93 92 94 100 99 108 110 109 111 109 104 100 95 87 83 82 78 75 75 69 78 96 101 107 107 105 102 101 100
123 124 129 125 120 118 127 122 118 111 105 101 94 89 87 85 85 91 98 102 106 107 108 110 109 100 90 84 82 85 74 73 86 77 109 114 117 118 118 113 111 108 106
152 147 142 144 142 132 129 124 124 118 114 105 103 98 91 85 74 79 85 93 93 94 101 107 108 95 78 74 70 73 72 66 85 90 127 126 130 128 127 123 119 116 117
164 157 154 153 153 145 138 133 127 120 119 112 108 109 102 91 80 70 81 77 72 64 63 72 67 72 89 91 91 92 84 73 84 54 129 127 132 137 135 133 127 123 119
160 165 163 154 150 152 143 143 137 134 134 131 127 119 116 112 106 103 100 90 79 78 82 67 69 96 94 111 128 122 106 102 98 72 125 134 139 140 145 146 143 137 131
161 169 167 156 152 150 145 151 136 145 149 146 140 139 128 129 136 137 138 113 107 106 129 119 118 123 131 173 155 140 139 134 122 104 94 138 145 144 146 152 150 149 147
170 175 167 160 159 148 145 147 154 155 152 146 147 151 140 136 145 145 141 127 112 132 142 156 169 154 174 165 168 159 156 154 142 112 82 127 141 152 163 167 169 169 169
175 168 163 162 154 151 149 147 155 155 146 150 159 156 150 142 147 147 141 137 145 121 99 98 110 107 98 101 176 186 155 155 155 142 123 91 122 113 138 160 162 174 177
161 150 156 152 151 157 157 156 155 154 149 157 159 155 161 158 149 145 148 164 168 121 110 115 102 106 97 102 154 190 149 144 148 144 117 108 94 82 57 132 135 162 192
166 152 147 145 155 164 165 156 148 153 153 154 143 151 167 162 163 157 164 166 147 130 126 134 105 120 131 107 148 146 134 156 163 135 116 113 100 90 63 219 210 237 245
163 147 142 144 148 154 156 131 120 115 155 147 152 164 165 168 166 161 163 159 146 137 132 127 127 96 128 154 125 90 67 181 145 142 149 115 95 81 47 23 347 289 262
149 141 141 144 153 148 154 162 170 189 202 185 189 177 173 175 172 164 166 166 162 163 169 158 142 136 114 104 89 56 7 360 110 167 162 149 102 55 52 16 10 347 304
165 159 157 161 166 165 173 181 177 172 198 206 210 196 186 186 182 176 176 178 179 169 165 166 146 139 171 138 127 125 34 348 351 330 295 179 194 54 25 320 312 315 315
173 180 178 182 175 174 162 138 110 87 49 249 218 214 205 193 191 187 189 187 185 177 183 190 173 162 181 222 162 145 153 203 308 322 306 280 330 354 321 319 304 286 279
192 187 179 178 171 175 169 165 164 178 200 222 217 219 222 201 194 187 189 193 193 187 190 198 187 183 174 193 231 210 165 159 162 278 310 308 315 286 285 301 287 275 275
183 177 173 165 169 175 177 180 176 191 211 215 208 209 218 217 204 195 189 191 197 198 197 198 189 190 186 191 195 178 153 139 141 174 240 277 311 276 267 267 262 278 292
170 167 166 160 180 182 175 181 184 193 204 199 211 214 219 226 221 205 195 196 199 200 202 201 192 190 195 193 197 182 168 170 177 184 213 241 269 278 281 265 252 260 277